Regional Weather Roundup
Issued by NWS

Home | Current Version | Previous Version | Text Only | Print | Product List | Glossary On
Versions: 1 2 3 4 5 6 7 8 9 10 11 12 13 14 15 16 17 18 19 20 21 22 23 24 25 26 27 28 29 30 31 32 33 34 35 36 37 38 39 40 41 42 43 44 45 46 47 48 49 50
000
ASUS43 KBIS 221202
RWRND

NORTH DAKOTA REGIONAL WEATHER ROUNDUP
NATIONAL WEATHER SERVICE BISMARCK ND
600 AM CST SUN JAN 22 2017

NOTE: "FAIR" INDICATES FEW OR NO CLOUDS BELOW 12,000 FEET WITH NO
SIGNIFICANT WEATHER AND/OR OBSTRUCTIONS TO VISIBILITY.


NDZ001>003-009>011-017-221300-
NORTHWEST NORTH DAKOTA

CITY           SKY/WX    TMP DP  RH WIND       PRES   REMARKS
WILLISTON      CLOUDY    30  27  88 W9        29.72R
6HR MIN TEMP:  30; 6HR MAX TEMP:  31;

MINOT          CLOUDY    31  26  82 W17       29.65S WCI  19
$$

NDZ018>021-031>035-040>046-221300-
SOUTHWEST NORTH DAKOTA

CITY           SKY/WX    TMP DP  RH WIND       PRES   REMARKS
BISMARCK       CLOUDY    28  26  92 W9        29.71R WCI  19
6HR MIN TEMP:  14; 6HR MAX TEMP:  28;

DICKINSON      CLOUDY    20  17  88 W15       29.69R WCI   6
GARRISON         N/A     30  27  88 W9        29.67R
6HR MIN TEMP:  27; 6HR MAX TEMP:  30;

HETTINGER ARPT CLEAR     16  13  88 NW12      29.72R WCI   3
$$

NDZ004>008-012>016-024-026-027-054-221300-
NORTHEAST NORTH DAKOTA

CITY           SKY/WX    TMP DP  RH WIND       PRES   REMARKS
GRAND FORKS    CLOUDY    34  32  92 W5        29.66R
DEVILS LAKE    CLOUDY    30  28  92 W12       29.66R
$$

NDZ022-023-025-028>030-036>039-047>053-221300-
SOUTHEAST NORTH DAKOTA

CITY           SKY/WX    TMP DP  RH WIND       PRES   REMARKS
FARGO          CLOUDY    35  33  92 W6        29.67R FOG
6HR MIN TEMP:  35; 6HR MAX TEMP:  36;

JAMESTOWN      CLOUDY    29  28  96 NW10      29.66R FOG     WCI  20
$$





USA.gov is the U.S. government's official web portal to all federal, state and local government web resources and services.